Miscellaneous Local Product
Issued by NWS Hastings, NE

Home | Current Version | Previous Version | Graphics & Text | Print | Product List | Glossary On
Versions: 1 2 3 4 5 6 7 8 9 10 11 12 13 14 15 16 17 18 19 20 21 22 23 24 25 26 27 28 29 30 31 32 33 34 35 36 37 38 39 40 41 42 43 44 45 46 47 48 49 50
000
AXUS43 KGID 210702
MISGRI

GID CWA HOURLY WEATHER ROUNDUP
NATIONAL WEATHER SERVICE HASTINGS NE
100 AM CST SUN DEC 21 2014

NOTE: "FAIR" INDICATES FEW OR NO CLOUDS BELOW 12,000 FEET WITH NO
SIGNIFICANT WEATHER AND/OR OBSTRUCTIONS TO VISIBILITY.

...SOUTH CENTRAL NEBRASKA...

CITY           SKY/WX    TMP DP  RH WIND       PRES   REMARKS
GRAND ISLAND   FOG       29  29 100 S5        29.93F VSB 1/4 WCI  24
HASTINGS       CLEAR     31  29  92 S5        29.91F FOG     WCI  26
KEARNEY        CLEAR     28  25  86 S8        29.91F WCI  20
ORD            NOT AVBL
YORK           FOG       34  34 100 S8        29.94F VSB 1/4 WCI  27
AURORA         FOG       32  32 100 S3        29.93S VSB 1/4
LEXINGTON      CLEAR     26  25  94 W5        29.90F WCI  20
HOLDREGE       CLEAR     28  26  91 S6        29.91F WCI  22
HEBRON         CLEAR     36  33  90 SW9       29.97S WCI  29

...NEBRASKA PANHANDLE...

CITY           SKY/WX    TMP DP  RH WIND       PRES   REMARKS
CHADRON        PTCLDY    25  21  85 SW8       29.81F WCI  16
ALLIANCE       CLOUDY    34  28  79 SW9       29.85F WCI  27
SCOTTSBLUFF    MOCLDY    35  28  75 NW6       29.86F WCI  30
SIDNEY         CLOUDY    28  23  81 NW6       29.87F WCI  22

...WESTERN AND NORTH CENTRAL NEBRASKA...

CITY           SKY/WX    TMP DP  RH WIND       PRES   REMARKS
VALENTINE      MOCLDY    26  24  92 SW6       29.83F WCI  19
AINSWORTH      PTCLDY    28  24  84 W7        29.85F WCI  21
ONEILL         FOG       29  29 100 S6        29.88F VSB 1/4 WCI  23
BROKEN BOW     PTCLDY    27  24  89 N5        29.88F WCI  22
IMPERIAL       MOCLDY    35  25  66 SW5       29.89F WCI  31
NORTH PLATTE   MOCLDY    23  20  88 NW5       29.89F WCI  17
MCCOOK         PTCLDY    30  26  85 W7        29.90F WCI  23

...EASTERN NEBRASKA...

CITY           SKY/WX    TMP DP  RH WIND       PRES   REMARKS
NORFOLK        FOG       33  33 100 SE6       29.92F VSB 1/4 WCI  28
SO SIOUX CITY  CLOUDY    33  32  96 SE9       29.97F FOG     WCI  25
TEKAMAH        FOG       34  33  96 SE12      29.99F VSB 3/4 WCI  25
COLUMBUS       CLOUDY    34  30  86 SE3       29.95F VSB 1/4
ALBION         FOG       32  31  96 S5        29.92F VSB 1/4 WCI  27
OMAHA EPPLEY   CLOUDY    36  35  96 SE9       30.01F FOG     WCI  29
OFFUTT AFB     CLOUDY    35  34  97 E5        30.00F FOG     WCI  31
MILLARD        CLOUDY    36  34  95 SE7       30.01F FOG     WCI  30
LINCOLN        CLEAR     33  32  96 S7        29.98F FOG     WCI  27
NEBRASKA CITY  PTCLDY    33  33 100 S8        30.01F FOG     WCI  26
BEATRICE       CLEAR     36  34  95 S9        30.00S WCI  29
FALLS CITY     PTCLDY    35  32  88 S9        30.04F WCI  28

...NORTHERN KANSAS...

CITY           SKY/WX    TMP DP  RH WIND       PRES   REMARKS
GOODLAND       CLOUDY    33  28  81 SW7       29.92F WCI  27
HILL CITY      PTCLDY    34  32  92 W6        29.96S WCI  29
NORTON         MOSUNNY   34  28  80 SW8       29.91F WCI  27
PHILLIPSBURG   CLEAR     37  37 100 SW5       29.95S WCI  34
SMITH CENTER   CLEAR     36  34  93 S6        29.96F WCI  31
BELOIT         CLEAR     36  36 100 S6        29.98F WCI  31
HAYS           CLEAR     30  21  69 S7        29.97F WCI  23
RUSSELL        PTCLDY    34  33  96 S14       29.96F WCI  25
CONCORDIA      PTCLDY    36  35  96 SW7       29.98F WCI  30
SALINA         PTCLDY    39  36  89 S8        30.03S WCI  33
TOPEKA         MOCLDY   N/A N/A N/A S6        30.08F



USA.gov is the U.S. government's official web portal to all federal, state and local government web resources and services.